Location: Overspoor
(51.4747°N, 5.6641°E)
Time: 04:07:16
(UTC+02:00)

DUCHIFAT 1 - Pass Details

Date: 06 July 2022
Orbit: 580 x 596 km, 98.0° (Epoch: 09 August)

Event Time Altitude Azimuth Distance (km) Brightness Sun altitude
Rises 03:24:51 0° 24° (NNE) 2,849 ? -12.5°
Reaches altitude 10° 03:27:23 10° 39° (NE) 1,944 ? -12.3°
Maximum altitude 03:30:49 24° 93° (E) 1,260 ? -12.1°
Drops below altitude 10° 03:34:14 10° 148° (SSE) 1,934 ? -11.8°
Enters shadow 03:35:26 - 156° (SSE) 2,352 ? -11.8°
